Time,TemperatureF,DewpointF,PressureIn,WindDirection,WindDirectionDegrees,WindSpeedMPH,WindSpeedGustMPH,Humidity,HourlyPrecipIn,Conditions,Clouds,dailyrainin,SolarRadiationWatts/m^2,SoftwareType,DateUTC
2013-05-17 00:02:00,48.9,39.5,30.06,ENE,61,4.0,4.0,70,0.00,,,0.00,0,Wunderground v.1.15,2013-05-17 05:02:00,
2013-05-17 00:12:00,48.9,39.9,30.06,ENE,61,3.0,3.0,71,0.00,,,0.00,0,Wunderground v.1.15,2013-05-17 05:12:00,
2013-05-17 00:22:00,48.9,40.3,30.06,ENE,61,2.0,2.0,72,0.00,,,0.00,0,Wunderground v.1.15,2013-05-17 05:22:00,
2013-05-17 00:32:00,49.1,40.5,30.06,NE,47,5.0,5.0,72,0.00,,,0.00,0,Wunderground v.1.15,2013-05-17 05:32:00,
2013-05-17 00:42:00,49.1,40.5,30.06,NE,47,4.0,4.0,72,0.00,,,0.00,0,Wunderground v.1.15,2013-05-17 05:42:00,
2013-05-17 00:52:00,49.1,40.5,30.05,NE,47,5.0,6.0,72,0.00,,,0.00,0,Wunderground v.1.15,2013-05-17 05:52:00,
2013-05-17 01:02:00,49.2,40.6,30.05,NE,47,5.0,5.0,72,0.00,,,0.00,0,Wunderground v.1.15,2013-05-17 06:02:00,
2013-05-17 01:12:00,49.1,40.5,30.05,NE,56,5.0,6.0,72,0.00,,,0.00,0,Wunderground v.1.15,2013-05-17 06:12:00,
2013-05-17 01:22:00,48.9,40.3,30.06,NE,51,5.0,5.0,72,0.00,,,0.00,0,Wunderground v.1.15,2013-05-17 06:22:00,
2013-05-17 01:32:00,48.9,40.6,30.06,NE,51,5.0,7.0,73,0.00,,,0.00,0,Wunderground v.1.15,2013-05-17 06:32:00,
2013-05-17 01:42:00,48.8,40.2,30.05,NE,55,6.0,6.0,72,0.00,,,0.00,0,Wunderground v.1.15,2013-05-17 06:42:00,
2013-05-17 01:52:00,48.6,40.0,30.05,NE,49,6.0,7.0,72,0.00,,,0.00,0,Wunderground v.1.15,2013-05-17 06:52:00,
2013-05-17 02:02:00,48.5,39.9,30.05,NE,56,7.0,7.0,72,0.00,,,0.00,0,Wunderground v.1.15,2013-05-17 07:02:00,
2013-05-17 02:12:00,48.2,39.2,30.06,ENE,65,8.0,12.0,71,0.00,,,0.00,0,Wunderground v.1.15,2013-05-17 07:12:00,
2013-05-17 02:22:00,47.9,39.3,30.05,ENE,68,9.0,11.0,72,0.00,,,0.00,0,Wunderground v.1.15,2013-05-17 07:22:00,
2013-05-17 02:32:00,47.6,39.0,30.05,NE,45,8.0,8.0,72,0.00,,,0.00,0,Wunderground v.1.15,2013-05-17 07:32:00,
2013-05-17 02:42:00,47.0,39.1,30.05,NE,52,8.0,8.0,74,0.00,,,0.00,0,Wunderground v.1.15,2013-05-17 07:42:00,
2013-05-17 02:52:00,46.5,39.3,30.05,NE,51,8.0,8.0,76,0.00,,,0.00,0,Wunderground v.1.15,2013-05-17 07:52:00,
2013-05-17 03:02:00,46.2,39.4,30.05,ENE,58,8.0,8.0,77,0.00,,,0.00,0,Wunderground v.1.15,2013-05-17 08:02:00,
2013-05-17 03:12:00,46.0,39.2,30.06,ENE,59,9.0,9.0,77,0.00,,,0.00,0,Wunderground v.1.15,2013-05-17 08:12:00,
2013-05-17 03:22:00,46.0,39.2,30.06,NE,45,8.0,8.0,77,0.00,,,0.00,0,Wunderground v.1.15,2013-05-17 08:22:00,
2013-05-17 03:32:00,45.7,38.9,30.06,ENE,64,6.0,7.0,77,0.00,,,0.00,0,Wunderground v.1.15,2013-05-17 08:32:00,
2013-05-17 03:42:00,45.4,38.6,30.07,NE,42,8.0,9.0,77,0.00,,,0.00,0,Wunderground v.1.15,2013-05-17 08:42:00,
2013-05-17 03:52:00,45.1,39.0,30.08,NE,55,6.0,6.0,79,0.00,,,0.00,0,Wunderground v.1.15,2013-05-17 08:52:00,
2013-05-17 04:02:00,44.8,38.7,30.08,NE,56,7.0,9.0,79,0.00,,,0.00,0,Wunderground v.1.15,2013-05-17 09:02:00,
2013-05-17 04:12:00,44.6,38.8,30.07,NE,52,9.0,9.0,80,0.00,,,0.00,0,Wunderground v.1.15,2013-05-17 09:12:00,
2013-05-17 04:22:00,44.3,38.5,30.07,ENE,58,9.0,9.0,80,0.00,,,0.00,0,Wunderground v.1.15,2013-05-17 09:22:00,
2013-05-17 04:32:00,44.3,38.8,30.07,ENE,71,7.0,7.0,81,0.00,,,0.00,0,Wunderground v.1.15,2013-05-17 09:32:00,
2013-05-17 04:42:00,44.2,38.7,30.08,East,83,7.0,7.0,81,0.00,,,0.00,0,Wunderground v.1.15,2013-05-17 09:42:00,
2013-05-17 04:52:00,44.2,39.1,30.08,ENE,71,8.0,8.0,82,0.00,,,0.00,0,Wunderground v.1.15,2013-05-17 09:52:00,
2013-05-17 05:02:00,44.2,39.1,30.08,NE,56,8.0,8.0,82,0.00,,,0.00,0,Wunderground v.1.15,2013-05-17 10:02:00,
2013-05-17 05:12:00,44.3,38.8,30.07,ENE,61,7.0,7.0,81,0.00,,,0.00,0,Wunderground v.1.15,2013-05-17 10:12:00,
2013-05-17 05:22:00,44.5,39.0,30.09,NE,56,6.0,6.0,81,0.00,,,0.00,0,Wunderground v.1.15,2013-05-17 10:22:00,
2013-05-17 05:32:00,44.5,39.3,30.09,NE,47,5.0,6.0,82,0.00,,,0.00,0,Wunderground v.1.15,2013-05-17 10:32:00,
2013-05-17 05:42:00,44.3,39.2,30.09,NE,49,5.0,5.0,82,0.00,,,0.00,0,Wunderground v.1.15,2013-05-17 10:42:00,
2013-05-17 05:52:00,44.3,39.5,30.10,ENE,62,5.0,7.0,83,0.00,,,0.00,11,Wunderground v.1.15,2013-05-17 10:52:00,
2013-05-17 06:02:00,44.3,39.5,30.10,NE,56,6.0,6.0,83,0.00,,,0.00,18,Wunderground v.1.15,2013-05-17 11:02:00,
2013-05-17 06:12:00,44.3,39.5,30.11,ENE,61,3.0,3.0,83,0.00,,,0.00,25,Wunderground v.1.15,2013-05-17 11:12:00,
2013-05-17 06:22:00,44.5,39.7,30.11,ENE,71,4.0,4.0,83,0.00,,,0.00,26,Wunderground v.1.15,2013-05-17 11:22:00,
2013-05-17 06:32:00,44.5,39.7,30.11,ENE,71,3.0,3.0,83,0.00,,,0.00,28,Wunderground v.1.15,2013-05-17 11:32:00,
2013-05-17 06:42:00,44.5,39.7,30.13,ENE,71,2.0,3.0,83,0.00,,,0.00,32,Wunderground v.1.15,2013-05-17 11:42:00,
2013-05-17 06:52:00,44.6,39.8,30.15,East,95,1.0,2.0,83,0.00,,,0.00,39,Wunderground v.1.15,2013-05-17 11:52:00,
2013-05-17 07:02:00,44.8,40.0,30.15,East,95,1.0,5.0,83,0.00,,,0.00,46,Wunderground v.1.15,2013-05-17 12:02:00,
2013-05-17 07:12:00,44.9,40.0,30.14,East,93,4.0,4.0,83,0.00,,,0.00,40,Wunderground v.1.15,2013-05-17 12:12:00,
2013-05-17 07:22:00,44.9,40.0,30.15,NE,56,5.0,8.0,83,0.00,,,0.00,53,Wunderground v.1.15,2013-05-17 12:22:00,
2013-05-17 07:32:00,45.2,40.3,30.15,NE,52,4.0,6.0,83,0.00,,,0.00,86,Wunderground v.1.15,2013-05-17 12:32:00,
2013-05-17 07:42:00,45.4,40.2,30.15,NE,34,6.0,8.0,82,0.00,,,0.00,99,Wunderground v.1.15,2013-05-17 12:42:00,
2013-05-17 07:52:00,45.7,40.5,30.15,NE,42,6.0,6.0,82,0.00,,,0.00,106,Wunderground v.1.15,2013-05-17 12:52:00,
2013-05-17 08:02:00,46.1,40.6,30.15,ENE,64,5.0,6.0,81,0.00,,,0.00,120,Wunderground v.1.15,2013-05-17 13:02:00,
2013-05-17 08:12:00,46.5,41.0,30.15,ENE,64,5.0,5.0,81,0.00,,,0.00,134,Wunderground v.1.15,2013-05-17 13:12:00,
2013-05-17 08:22:00,46.8,41.0,30.14,ENE,64,4.0,4.0,80,0.00,,,0.00,120,Wunderground v.1.15,2013-05-17 13:22:00,
2013-05-17 08:32:00,47.3,41.1,30.14,ENE,64,3.0,3.0,79,0.00,,,0.00,160,Wunderground v.1.15,2013-05-17 13:32:00,
2013-05-17 08:42:00,47.7,41.5,30.14,ENE,64,3.0,3.0,79,0.00,,,0.00,194,Wunderground v.1.15,2013-05-17 13:42:00,
2013-05-17 08:52:00,48.5,42.0,30.14,ENE,64,4.0,4.0,78,0.00,,,0.00,181,Wunderground v.1.15,2013-05-17 13:52:00,
2013-05-17 09:02:00,48.8,41.9,30.14,ENE,64,5.0,7.0,77,0.00,,,0.00,195,Wunderground v.1.15,2013-05-17 14:02:00,
2013-05-17 09:12:00,48.6,42.0,30.14,ENE,62,5.0,5.0,78,0.00,,,0.00,190,Wunderground v.1.15,2013-05-17 14:12:00,
2013-05-17 09:22:00,48.8,41.6,30.14,ENE,62,4.0,4.0,76,0.00,,,0.00,137,Wunderground v.1.15,2013-05-17 14:22:00,
2013-05-17 09:32:00,48.8,41.6,30.14,ENE,62,3.0,3.0,76,0.00,,,0.00,143,Wunderground v.1.15,2013-05-17 14:32:00,
2013-05-17 09:42:00,48.9,42.0,30.15,ENE,64,3.0,3.0,77,0.00,,,0.00,160,Wunderground v.1.15,2013-05-17 14:42:00,
2013-05-17 09:52:00,48.8,41.6,30.16,ENE,62,3.0,3.0,76,0.00,,,0.00,197,Wunderground v.1.15,2013-05-17 14:52:00,
2013-05-17 10:02:00,48.8,41.9,30.16,ENE,62,4.0,4.0,77,0.00,,,0.00,194,Wunderground v.1.15,2013-05-17 15:02:00,
2013-05-17 10:12:00,48.3,41.1,30.17,ENE,64,4.0,5.0,76,0.00,,,0.00,183,Wunderground v.1.15,2013-05-17 15:12:00,
2013-05-17 10:22:00,48.0,41.8,30.17,ENE,61,5.0,5.0,79,0.00,,,0.00,183,Wunderground v.1.15,2013-05-17 15:22:00,
2013-05-17 10:32:00,47.6,41.7,30.17,ENE,61,5.0,5.0,80,0.00,,,0.00,195,Wunderground v.1.15,2013-05-17 15:32:00,
2013-05-17 10:42:00,47.3,41.4,30.17,ENE,61,5.0,6.0,80,0.00,,,0.00,211,Wunderground v.1.15,2013-05-17 15:42:00,
2013-05-17 10:52:00,47.1,41.6,30.18,ENE,61,4.0,4.0,81,0.00,,,0.00,234,Wunderground v.1.15,2013-05-17 15:52:00,
2013-05-17 11:02:00,47.1,41.2,30.18,ENE,61,5.0,5.0,80,0.00,,,0.00,232,Wunderground v.1.15,2013-05-17 16:02:00,
2013-05-17 11:12:00,47.3,41.4,30.18,ENE,61,5.0,5.0,80,0.00,,,0.00,190,Wunderground v.1.15,2013-05-17 16:12:00,
2013-05-17 11:22:00,47.7,41.8,30.18,ENE,61,3.0,3.0,80,0.00,,,0.00,220,Wunderground v.1.15,2013-05-17 16:22:00,
2013-05-17 11:32:00,48.3,42.1,30.18,ENE,61,4.0,4.0,79,0.00,,,0.00,252,Wunderground v.1.15,2013-05-17 16:32:00,
2013-05-17 11:42:00,48.9,42.3,30.17,ENE,61,3.0,3.0,78,0.00,,,0.00,289,Wunderground v.1.15,2013-05-17 16:42:00,
2013-05-17 11:52:00,49.8,42.9,30.17,ENE,61,3.0,5.0,77,0.00,,,0.00,273,Wunderground v.1.15,2013-05-17 16:52:00,
2013-05-17 12:02:00,49.6,41.7,30.17,ESE,102,4.0,6.0,74,0.00,,,0.00,273,Wunderground v.1.15,2013-05-17 17:02:00,
2013-05-17 12:12:00,49.5,42.2,30.16,ESE,102,4.0,4.0,76,0.00,,,0.00,266,Wunderground v.1.15,2013-05-17 17:12:00,
2013-05-17 12:22:00,49.6,43.0,30.16,ESE,102,2.0,3.0,78,0.00,,,0.00,343,Wunderground v.1.15,2013-05-17 17:22:00,
2013-05-17 12:32:00,49.4,42.1,30.16,ESE,102,3.0,6.0,76,0.00,,,0.00,303,Wunderground v.1.15,2013-05-17 17:32:00,
2013-05-17 12:42:00,49.4,43.2,30.16,ESE,102,4.0,5.0,79,0.00,,,0.00,280,Wunderground v.1.15,2013-05-17 17:42:00,
2013-05-17 12:52:00,48.9,43.3,30.16,ESE,102,3.0,3.0,81,0.00,,,0.00,306,Wunderground v.1.15,2013-05-17 17:52:00,
2013-05-17 13:02:00,48.6,43.4,30.16,ESE,102,4.0,4.0,82,0.00,,,0.00,294,Wunderground v.1.15,2013-05-17 18:02:00,
2013-05-17 13:12:00,49.1,43.8,30.15,ESE,102,3.0,6.0,82,0.00,,,0.00,292,Wunderground v.1.15,2013-05-17 18:12:00,
2013-05-17 13:22:00,48.8,43.5,30.15,ESE,102,4.0,4.0,82,0.00,,,0.00,311,Wunderground v.1.15,2013-05-17 18:22:00,
2013-05-17 13:32:00,49.1,44.5,30.15,ESE,102,3.0,6.0,84,0.00,,,0.00,267,Wunderground v.1.15,2013-05-17 18:32:00,
2013-05-17 13:42:00,48.8,44.5,30.15,ESE,102,5.0,5.0,85,0.00,,,0.00,269,Wunderground v.1.15,2013-05-17 18:42:00,
2013-05-17 13:52:00,48.0,44.0,30.14,East,99,5.0,5.0,86,0.00,,,0.01,225,Wunderground v.1.15,2013-05-17 18:52:00,
2013-05-17 14:02:00,48.0,44.3,30.14,East,99,4.0,5.0,87,0.00,,,0.01,236,Wunderground v.1.15,2013-05-17 19:02:00,
2013-05-17 14:12:00,47.6,43.6,30.14,East,86,6.0,6.0,86,0.00,,,0.01,315,Wunderground v.1.15,2013-05-17 19:12:00,
2013-05-17 14:22:00,48.0,43.7,30.14,East,89,5.0,5.0,85,0.00,,,0.01,280,Wunderground v.1.15,2013-05-17 19:22:00,
2013-05-17 14:32:00,48.3,43.7,30.14,ESE,107,5.0,5.0,84,0.00,,,0.01,230,Wunderground v.1.15,2013-05-17 19:32:00,
2013-05-17 14:42:00,48.9,44.3,30.14,ESE,107,3.0,3.0,84,0.00,,,0.01,257,Wunderground v.1.15,2013-05-17 19:42:00,
2013-05-17 14:52:00,49.2,44.3,30.13,ESE,112,4.0,4.0,83,0.00,,,0.01,236,Wunderground v.1.15,2013-05-17 19:52:00,
2013-05-17 15:02:00,49.4,44.1,30.13,ESE,109,3.0,6.0,82,0.00,,,0.01,236,Wunderground v.1.15,2013-05-17 20:02:00,
2013-05-17 15:12:00,49.5,45.2,30.13,ESE,107,5.0,8.0,85,0.00,,,0.01,274,Wunderground v.1.15,2013-05-17 20:12:00,
2013-05-17 15:22:00,49.5,44.9,30.12,ESE,102,5.0,5.0,84,0.00,,,0.01,318,Wunderground v.1.15,2013-05-17 20:22:00,
2013-05-17 15:32:00,49.8,44.8,30.12,East,86,5.0,5.0,83,0.00,,,0.01,292,Wunderground v.1.15,2013-05-17 20:32:00,
2013-05-17 15:42:00,50.2,44.9,30.12,East,86,4.0,6.0,82,0.00,,,0.01,227,Wunderground v.1.15,2013-05-17 20:42:00,
2013-05-17 15:52:00,50.1,44.5,30.11,SE,124,5.0,7.0,81,0.00,,,0.01,222,Wunderground v.1.15,2013-05-17 20:52:00,
2013-05-17 16:02:00,50.5,44.6,30.11,ESE,121,3.0,3.0,80,0.00,,,0.01,262,Wunderground v.1.15,2013-05-17 21:02:00,
2013-05-17 16:12:00,51.0,44.0,30.12,ESE,121,3.0,4.0,77,0.00,,,0.01,352,Wunderground v.1.15,2013-05-17 21:12:00,
2013-05-17 16:22:00,51.6,45.0,30.13,ESE,121,3.0,3.0,78,0.00,,,0.01,352,Wunderground v.1.15,2013-05-17 21:22:00,
2013-05-17 16:32:00,52.3,45.3,30.13,ESE,121,2.0,2.0,77,0.00,,,0.01,297,Wunderground v.1.15,2013-05-17 21:32:00,
2013-05-17 16:42:00,52.3,45.0,30.13,ESE,121,3.0,3.0,76,0.00,,,0.01,229,Wunderground v.1.15,2013-05-17 21:42:00,
2013-05-17 16:52:00,52.3,45.3,30.13,ESE,121,3.0,3.0,77,0.00,,,0.01,143,Wunderground v.1.15,2013-05-17 21:52:00,
2013-05-17 17:02:00,52.3,45.3,30.13,ESE,121,2.0,2.0,77,0.00,,,0.01,90,Wunderground v.1.15,2013-05-17 22:02:00,
2013-05-17 17:12:00,52.2,44.9,30.13,ESE,121,2.0,2.0,76,0.00,,,0.01,60,Wunderground v.1.15,2013-05-17 22:12:00,
2013-05-17 17:22:00,52.2,45.2,30.13,ESE,121,1.0,1.0,77,0.00,,,0.01,63,Wunderground v.1.15,2013-05-17 22:22:00,
2013-05-17 17:32:00,52.2,45.2,30.13,ESE,121,1.0,1.0,77,0.00,,,0.01,56,Wunderground v.1.15,2013-05-17 22:32:00,
2013-05-17 17:42:00,52.2,45.5,30.12,ESE,121,0.0,0.0,78,0.00,,,0.01,55,Wunderground v.1.15,2013-05-17 22:42:00,
2013-05-17 17:52:00,52.0,45.0,30.12,ESE,121,1.0,1.0,77,0.00,,,0.01,55,Wunderground v.1.15,2013-05-17 22:52:00,
2013-05-17 18:02:00,52.0,45.4,30.12,ESE,121,1.0,1.0,78,0.00,,,0.01,83,Wunderground v.1.15,2013-05-17 23:02:00,
2013-05-17 18:12:00,51.9,44.9,30.12,ESE,121,1.0,2.0,77,0.00,,,0.01,55,Wunderground v.1.15,2013-05-17 23:12:00,
2013-05-17 18:22:00,51.9,44.9,30.12,ESE,121,1.0,1.0,77,0.00,,,0.01,56,Wunderground v.1.15,2013-05-17 23:22:00,
2013-05-17 18:32:00,52.0,45.4,30.12,ESE,121,0.0,0.0,78,0.00,,,0.01,46,Wunderground v.1.15,2013-05-17 23:32:00,
2013-05-17 18:42:00,52.2,45.9,30.12,ESE,121,0.0,0.0,79,0.00,,,0.01,25,Wunderground v.1.15,2013-05-17 23:42:00,
2013-05-17 18:52:00,52.2,46.2,30.12,ESE,121,1.0,1.0,80,0.00,,,0.01,25,Wunderground v.1.15,2013-05-17 23:52:00,
2013-05-17 19:02:00,52.2,46.5,30.12,ESE,121,1.0,1.0,81,0.00,,,0.01,18,Wunderground v.1.15,2013-05-18 00:02:00,
2013-05-17 19:12:00,52.2,45.9,30.12,ESE,121,2.0,2.0,79,0.00,,,0.01,11,Wunderground v.1.15,2013-05-18 00:12:00,
2013-05-17 19:22:00,52.0,45.7,30.12,ESE,121,2.0,2.0,79,0.00,,,0.01,9,Wunderground v.1.15,2013-05-18 00:22:00,
2013-05-17 19:32:00,51.7,45.4,30.12,ESE,121,1.0,1.0,79,0.00,,,0.01,0,Wunderground v.1.15,2013-05-18 00:32:00,
2013-05-17 19:42:00,51.1,44.8,30.12,ESE,121,1.0,1.0,79,0.00,,,0.01,0,Wunderground v.1.15,2013-05-18 00:42:00,
2013-05-17 19:52:00,51.0,44.7,30.12,ESE,121,1.0,1.0,79,0.00,,,0.01,0,Wunderground v.1.15,2013-05-18 00:52:00,
2013-05-17 20:02:00,50.8,44.5,30.12,ESE,121,0.0,2.0,79,0.00,,,0.01,0,Wunderground v.1.15,2013-05-18 01:02:00,
2013-05-17 20:12:00,50.8,44.9,30.12,ESE,121,1.0,1.0,80,0.00,,,0.01,0,Wunderground v.1.15,2013-05-18 01:12:00,
2013-05-17 20:22:00,50.8,44.9,30.12,ESE,121,1.0,2.0,80,0.00,,,0.01,0,Wunderground v.1.15,2013-05-18 01:22:00,
2013-05-17 20:32:00,50.8,44.5,30.12,ESE,121,3.0,3.0,79,0.00,,,0.01,0,Wunderground v.1.15,2013-05-18 01:32:00,
2013-05-17 20:42:00,50.7,44.4,30.12,ESE,121,4.0,4.0,79,0.00,,,0.01,0,Wunderground v.1.15,2013-05-18 01:42:00,
2013-05-17 20:52:00,50.4,43.8,30.12,ESE,121,4.0,4.0,78,0.00,,,0.01,0,Wunderground v.1.15,2013-05-18 01:52:00,
2013-05-17 21:02:00,50.1,43.5,30.12,ESE,121,4.0,4.0,78,0.00,,,0.01,0,Wunderground v.1.15,2013-05-18 02:02:00,
2013-05-17 21:12:00,49.8,43.2,30.13,ESE,121,4.0,4.0,78,0.00,,,0.01,0,Wunderground v.1.15,2013-05-18 02:12:00,
2013-05-17 21:22:00,49.6,43.4,30.14,ESE,121,4.0,4.0,79,0.00,,,0.01,0,Wunderground v.1.15,2013-05-18 02:22:00,
2013-05-17 21:32:00,49.6,43.4,30.14,ESE,121,2.0,2.0,79,0.00,,,0.01,0,Wunderground v.1.15,2013-05-18 02:32:00,
2013-05-17 21:42:00,49.6,43.7,30.14,ESE,121,2.0,2.0,80,0.00,,,0.01,0,Wunderground v.1.15,2013-05-18 02:42:00,
2013-05-17 21:52:00,49.6,43.7,30.14,ESE,121,3.0,5.0,80,0.00,,,0.01,0,Wunderground v.1.15,2013-05-18 02:52:00,
2013-05-17 22:02:00,49.9,43.6,30.14,ESE,121,4.0,4.0,79,0.00,,,0.01,0,Wunderground v.1.15,2013-05-18 03:02:00,
2013-05-17 22:12:00,50.1,43.8,30.13,ESE,121,3.0,3.0,79,0.00,,,0.01,0,Wunderground v.1.15,2013-05-18 03:12:00,
2013-05-17 22:22:00,50.1,43.8,30.13,ESE,121,4.0,5.0,79,0.00,,,0.01,0,Wunderground v.1.15,2013-05-18 03:22:00,
2013-05-17 22:32:00,50.1,43.5,30.13,ESE,121,5.0,5.0,78,0.00,,,0.01,0,Wunderground v.1.15,2013-05-18 03:32:00,
2013-05-17 22:42:00,50.1,43.5,30.13,ESE,121,3.0,3.0,78,0.00,,,0.01,0,Wunderground v.1.15,2013-05-18 03:42:00,
2013-05-17 22:52:00,49.9,43.6,30.14,ESE,121,3.0,3.0,79,0.00,,,0.01,0,Wunderground v.1.15,2013-05-18 03:52:00,
2013-05-17 23:02:00,49.6,43.4,30.14,ESE,121,4.0,6.0,79,0.00,,,0.01,0,Wunderground v.1.15,2013-05-18 04:02:00,
2013-05-17 23:12:00,49.5,43.6,30.12,ESE,121,5.0,5.0,80,0.00,,,0.01,0,Wunderground v.1.15,2013-05-18 04:12:00,
2013-05-17 23:22:00,49.6,43.7,30.12,ESE,121,5.0,5.0,80,0.00,,,0.01,0,Wunderground v.1.15,2013-05-18 04:22:00,
2013-05-17 23:32:00,49.5,43.3,30.12,ESE,121,5.0,5.0,79,0.00,,,0.01,0,Wunderground v.1.15,2013-05-18 04:32:00,
2013-05-17 23:42:00,49.4,43.5,30.12,ESE,121,5.0,7.0,80,0.00,,,0.01,0,Wunderground v.1.15,2013-05-18 04:42:00,
2013-05-17 23:52:00,49.1,43.8,30.12,ESE,121,4.0,4.0,82,0.00,,,0.01,0,Wunderground v.1.15,2013-05-18 04:52:00,